Weather History for KARB - August, 2013

Change the Weather History Date:

Sunday, August 25, 2013

  Actual Average Record
Temperature  
Mean Temperature 68 °F -  
Max Temperature 86 °F 77 °F 93 °F (2012)
Min Temperature 51 °F 54 °F 51 °F (2013)
Cooling Degree Days 2    
Growing Degree Days 18 (Base 50)    
Moisture  
Dew Point 57 °F    
Average Humidity 83    
Maximum Humidity 100    
Minimum Humidity 44    
Precipitation  
Precipitation 0.01 in - - ()
Sea Level Pressure  
Sea Level Pressure 30.26 in    
Wind  
Wind Speed 2 mph (WSW)    
Max Wind Speed 13 mph    
Max Gust Speed 81 mph    
Visibility 5 miles    
Events Fog    
Averages and records for this station are not official NWS values.
T = Trace of Precipitation, MM = Missing Value Source: NWS Daily Summary

Daily Weather History Graph

Daily Weather History Graph

Search for Another Location

Airport or City:

Trip Planner

Search our weather history database for the weather conditions in past years. The results will help you decide how hot, cold, wet, or windy it might be!

Date:

Astronomy

Aug. 25, 2013 Rise Set
Actual Time 6:53 AM EDT 8:19 PM EDT
Civil Twilight 6:23 AM EDT 8:49 PM EDT
Nautical Twilight 5:48 AM EDT 9:24 PM EDT
Astronomical Twilight 5:10 AM EDT 10:01 PM EDT
Moon 10:43 PM EDT (8/25) 12:00 PM EDT (8/25)
Length of Visible Light 14h 25m
Length of Day
13h 26m
Waning Gibbous, 76% of the Moon is Illuminated
Aug 25
Waning Gibbous
Aug 28
Last Quarter
Sep 5
New
Sep 12
First Quarter
Sep 19
Full

Hourly Weather History & Observations

Time (EDT) Temp. Heat Index Dew Point Humidity Pressure Visibility Wind Dir Wind Speed Gust Speed Precip Events Conditions
12:50 AM 55.4 °F - 55.4 °F 100% 30.29 in 1.8 mi Calm Calm - N/A   Clear
12:53 AM 55.0 °F - 54.0 °F 96% 30.28 in 1.0 mi Calm Calm - N/A   Clear
1:00 AM 55.4 °F - 53.6 °F 94% 30.29 in 0.5 mi Calm Calm - N/A Fog Fog
1:06 AM 57.2 °F - 55.4 °F 94% 30.29 in 1.8 mi Calm Calm - N/A   Clear
1:08 AM 57.2 °F - 55.4 °F 94% 30.29 in 4.0 mi Calm Calm - N/A   Clear
1:23 AM 53.6 °F - 53.6 °F 100% 30.29 in 1.8 mi Calm Calm - N/A   Clear
1:27 AM 53.6 °F - 53.6 °F 100% 30.29 in 0.8 mi Calm Calm - N/A   Clear
1:48 AM 53.6 °F - 53.6 °F 100% 30.29 in 2.5 mi Calm Calm - N/A   Clear
1:53 AM 54.0 °F - 53.1 °F 97% 30.28 in 5.0 mi Calm Calm - N/A   Clear
1:56 AM 55.4 °F - 53.6 °F 94% 30.29 in 1.5 mi Calm Calm - N/A   Clear
1:58 AM 55.4 °F - 53.6 °F 94% 30.29 in 0.8 mi Calm Calm - N/A   Clear
2:48 AM 51.8 °F - 51.8 °F 100% 30.29 in 0.2 mi Calm Calm - N/A Fog Fog
2:53 AM 55.0 °F - 54.0 °F 96% 30.29 in 0.2 mi Calm Calm - N/A Fog Fog
3:21 AM 53.6 °F - 51.8 °F 94% 30.29 in 1.8 mi Calm Calm - N/A   Clear
3:28 AM 53.6 °F - 51.8 °F 94% 30.29 in 10.0 mi Calm Calm - N/A   Clear
3:44 AM 51.8 °F - 51.8 °F 100% 30.29 in 1.5 mi Calm Calm - N/A   Partly Cloudy
3:49 AM 51.8 °F - 50.0 °F 94% 30.29 in 1.0 mi Calm Calm - N/A   Mist
3:53 AM 52.0 °F - 51.1 °F 97% 30.29 in 0.2 mi Calm Calm - N/A Fog Fog
4:53 AM 52.0 °F - 52.0 °F 100% 30.30 in 0.2 mi Calm Calm - N/A Fog Fog
5:53 AM 52.0 °F - 51.1 °F 97% 30.30 in 0.2 mi Calm Calm - N/A Fog Fog
6:53 AM 51.1 °F - 51.1 °F 100% 30.30 in 0.2 mi Calm Calm - 0.01 in Fog Fog
7:12 AM 51.8 °F - 51.8 °F 100% 30.30 in 0.5 mi Calm Calm - N/A Fog Fog
7:41 AM 53.6 °F - 53.6 °F 100% 30.30 in 1.5 mi Calm Calm - N/A   Clear
7:43 AM 53.6 °F - 53.6 °F 100% 30.30 in 3.0 mi Calm Calm - N/A   Clear
7:53 AM 55.0 °F - 55.0 °F 100% 30.30 in 7.0 mi Calm Calm - N/A   Clear
8:53 AM 64.9 °F - 59.0 °F 81% 30.30 in 10.0 mi SSW 3.5 mph - N/A   Clear
9:53 AM 71.1 °F - 60.1 °F 68% 30.30 in 10.0 mi SW 6.9 mph - N/A   Clear
10:53 AM 75.9 °F - 62.1 °F 62% 30.29 in 10.0 mi SW 6.9 mph 80.6 mph N/A   Clear
11:53 AM 79.0 °F - 63.0 °F 58% 30.27 in 10.0 mi SW 8.1 mph - N/A   Clear
12:53 PM 82.0 °F 83.0 °F 62.1 °F 51% 30.26 in 10.0 mi WSW 11.5 mph - N/A   Clear
1:53 PM 84.0 °F 84.5 °F 62.1 °F 47% 30.25 in 10.0 mi SW 9.2 mph - N/A   Clear
2:53 PM 84.0 °F 84.4 °F 61.0 °F 46% 30.22 in 10.0 mi WSW 12.7 mph - N/A   Clear
3:53 PM 84.9 °F 85.4 °F 62.1 °F 46% 30.21 in 10.0 mi WSW 11.5 mph - N/A   Clear
4:53 PM 84.9 °F 85.0 °F 61.0 °F 44% 30.19 in 10.0 mi WSW 10.4 mph - N/A   Clear
5:53 PM 84.9 °F 85.0 °F 61.0 °F 44% 30.18 in 10.0 mi WSW 11.5 mph - N/A   Clear
6:53 PM 82.9 °F 83.7 °F 62.1 °F 49% 30.17 in 10.0 mi WSW 9.2 mph - N/A   Clear
7:53 PM 78.1 °F - 64.0 °F 62% 30.17 in 10.0 mi WSW 4.6 mph - N/A   Clear
8:53 PM 72.0 °F - 64.0 °F 76% 30.18 in 10.0 mi West 3.5 mph - N/A   Clear
9:53 PM 70.0 °F - 64.0 °F 81% 30.18 in 10.0 mi SW 4.6 mph - N/A   Clear
10:53 PM 69.1 °F - 63.0 °F 81% 30.18 in 10.0 mi WSW 6.9 mph - N/A   Clear
11:53 PM 69.1 °F - 62.1 °F 78% 30.18 in 10.0 mi WSW 5.8 mph - N/A   Clear